Content
SEND FEEDBACK

Daily
Averages
Monthly
Summary
United States of America

SUNRISE BEACH, MISSOURI


Home > North America > United States > Missouri
Elevation: 672 feet     Latitude: 38 13N     Longitude: 092 46W

WEATHER
 
SELECT A DAY
Number of Records: 454,125;   Date Range: 1/1/95 - 8/22/14
 
SHARE

PRINT THIS DATA

[ ← Previous Day ]
WEATHER ALMANAC - JANUARY 9, 2013
[ Next Day → ]
[ °C ]   °F
Weather ElementAverageHighLow
Temperature45.2 °F53.6 °F (1:15 pm)35.6 °F (7:35 am)
Dewpoint35.6 °F44.6 °F (1:35 am)26.6 °F (10:55 pm)
Humidity71.3 %93 % (1:35 am)47 % (1:35 pm)
Barometer30.37 in30.44 in (10:15 am)30.24 in (12:35 am)
Wind Speed3.9 mph8.1 mph (1:15 pm)
Weather ElementAverage
Visibility7.3 mi
Wind DirectionENE (79 °)

Weather ElementTotal
Precipitation---
Heating Degree Days20.4 (Base 65)
Averaged from 70 records on January 9, 2013
WEATHER CONDITIONS BREAKOUT
WIND DIRECTION BREAKOUT
WEATHER BY HOUR - JANUARY 9, 2013
[ °C ]   °F
Local TimeTemperatureDewpointHumidityBarometerVisibilityWind DirectionWind SpeedGust SpeedPrecipitationEventsConditions
12:35 AM48.2 °F42.8 °F82 %30.24 in10.0 miSW (230°)4.6 mphOvercast
12:55 AM48.2 °F42.8 °F82 %30.24 in10.0 miSW (230°)3.5 mphOvercast
1:15 AM46.4 °F42.8 °F87 %30.25 in10.0 miCalmOvercast
1:35 AM46.4 °F44.6 °F93 %30.25 in10.0 miWSW (250°)5.8 mphOvercast
1:55 AM48.2 °F44.6 °F87 %30.26 in10.0 miWest (260°)4.6 mphOvercast
2:15 AM46.4 °F42.8 °F87 %30.27 in10.0 miWSW (250°)4.6 mphOvercast
2:35 AM46.4 °F42.8 °F87 %30.27 in10.0 miWSW (250°)4.6 mphOvercast
2:55 AM46.4 °F42.8 °F87 %30.27 in10.0 miWSW (250°)4.6 mphMostly Cloudy
3:15 AM46.4 °F42.8 °F87 %30.28 in9.0 miCalmOvercast
3:35 AM46.4 °F42.8 °F87 %30.28 in7.0 miWest (260°)3.5 mphScattered Clouds
3:55 AM44.6 °F42.8 °F93 %30.28 in5.0 miWSW (250°)3.5 mphClear
4:15 AM42.8 °F39.2 °F87 %30.29 in0.2 miCalmOvercast
4:35 AM42.8 °F39.2 °F87 %30.29 in0.2 miCalmOvercast
4:55 AM42.8 °F39.2 °F87 %30.29 in0.5 miCalmMostly Cloudy
5:15 AM39.2 °F37.4 °F93 %30.30 in0.2 miCalmOvercast
5:35 AM39.2 °F35.6 °F87 %30.31 in0.5 miWest (280°)3.5 mphMostly Cloudy
5:55 AM42.8 °F39.2 °F87 %30.32 in3.0 miCalmClear
6:15 AM37.4 °F35.6 °F93 %30.33 in0.2 miCalmOvercast
6:35 AM37.4 °F35.6 °F93 %30.34 in0.2 miCalmOvercast
6:55 AM37.4 °F35.6 °F93 %30.35 in0.2 miCalmOvercast
7:15 AM37.4 °F35.6 °F93 %30.36 in0.2 miCalmOvercast
7:35 AM35.6 °F33.8 °F93 %30.37 in0.2 miCalmOvercast
7:55 AM35.6 °F33.8 °F93 %30.39 in0.8 miCalmMostly Cloudy
8:15 AM35.6 °F33.8 °F93 %30.39 in4.0 miCalmPartly Cloudy
8:35 AM35.6 °F33.8 °F93 %30.40 in5.0 miCalmClear
8:55 AM35.6 °F33.8 °F93 %30.41 in5.0 miSSW (200°)3.5 mphClear
9:15 AM37.4 °F33.8 °F87 %30.42 in0.2 miSouth (190°)3.5 mphOvercast
9:35 AM37.4 °F35.6 °F93 %30.43 in0.2 miCalmOvercast
9:55 AM39.2 °F37.4 °F93 %30.43 in0.2 miCalmOvercast
10:15 AM41.0 °F39.2 °F93 %30.44 in0.5 miCalmOvercast
10:35 AM42.8 °F39.2 °F87 %30.43 in3.0 miCalmMostly Cloudy
10:55 AM42.8 °F39.2 °F87 %30.42 in5.0 miCalmPartly Cloudy
11:15 AM42.8 °F39.2 °F87 %30.42 in9.0 miCalmClear
11:35 AM44.6 °F39.2 °F81 %30.42 in10.0 miCalmClear
11:55 AM46.4 °F39.2 °F76 %30.40 in10.0 miCalmClear
12:15 PM48.2 °F39.2 °F71 %30.40 in10.0 miEast (80°)3.5 mphClear
12:35 PM51.8 °F39.2 °F62 %30.40 in10.0 miEast (100°)4.6 mphClear
12:55 PM51.8 °F39.2 °F62 %30.40 in10.0 miENE (60°)3.5 mphClear
1:15 PM53.6 °F35.6 °F51 %30.40 in10.0 miENE (70°)8.1 mphClear
1:35 PM53.6 °F33.8 °F47 %30.40 in10.0 miEast (80°)8.1 mphClear
1:55 PM53.6 °F33.8 °F47 %30.39 in10.0 miENE (60°)6.9 mphClear
2:15 PM53.6 °F35.6 °F51 %30.40 in10.0 miEast (80°)6.9 mphClear
2:35 PM53.6 °F35.6 °F51 %30.41 in10.0 miENE (70°)6.9 mphClear
2:55 PM53.6 °F33.8 °F47 %30.41 in10.0 miENE (70°)6.9 mphClear
3:15 PM53.6 °F33.8 °F47 %30.41 in10.0 miENE (70°)5.8 mphClear
3:35 PM53.6 °F33.8 °F47 %30.41 in10.0 miEast (90°)8.1 mphClear
3:55 PM53.6 °F33.8 °F47 %30.41 in10.0 miENE (70°)4.6 mphClear
4:15 PM51.8 °F33.8 °F50 %30.40 in10.0 miENE (70°)6.9 mphClear
4:35 PM51.8 °F33.8 °F50 %30.41 in10.0 miENE (60°)4.6 mphClear
4:55 PM50.0 °F33.8 °F54 %30.41 in10.0 miENE (60°)4.6 mphClear
5:15 PM50.0 °F33.8 °F54 %30.41 in10.0 miENE (70°)3.5 mphClear
5:35 PM48.2 °F35.6 °F62 %30.42 in10.0 miEast (80°)4.6 mphClear
5:55 PM48.2 °F35.6 °F62 %30.42 in10.0 miEast (80°)4.6 mphClear
6:15 PM46.4 °F33.8 °F62 %30.43 in10.0 miEast (80°)5.8 mphClear
6:35 PM46.4 °F33.8 °F62 %30.42 in10.0 miENE (60°)6.9 mphClear
6:55 PM46.4 °F33.8 °F62 %30.42 in10.0 miENE (60°)6.9 mphClear
7:15 PM46.4 °F32.0 °F57 %30.42 in10.0 miNE (50°)8.1 mphClear
7:35 PM44.6 °F30.2 °F57 %30.41 in10.0 miENE (70°)8.1 mphClear
7:55 PM46.4 °F28.4 °F50 %30.42 in10.0 miENE (70°)8.1 mphClear
8:35 PM44.6 °F28.4 °F53 %30.42 in10.0 miENE (70°)6.9 mphClear
8:55 PM44.6 °F28.4 °F53 %30.43 in10.0 miEast (80°)8.1 mphClear
9:15 PM44.6 °F28.4 °F53 %30.42 in10.0 miENE (70°)8.1 mphClear
9:35 PM44.6 °F28.4 °F53 %30.42 in10.0 miEast (90°)5.8 mphClear
9:55 PM44.6 °F28.4 °F53 %30.42 in10.0 miEast (100°)6.9 mphClear
10:15 PM44.6 °F28.4 °F53 %30.42 in10.0 miEast (90°)5.8 mphClear
10:35 PM44.6 °F28.4 °F53 %30.41 in10.0 miEast (90°)8.1 mphClear
10:55 PM44.6 °F26.6 °F49 %30.40 in10.0 miEast (80°)6.9 mphClear
11:15 PM44.6 °F26.6 °F49 %30.40 in10.0 miEast (90°)6.9 mphClear
11:35 PM44.6 °F26.6 °F49 %30.40 in10.0 miEast (90°)6.9 mphClear
11:55 PM44.6 °F28.4 °F53 %30.39 in10.0 miENE (70°)8.1 mphClear
Hourly data recorded from KAIZ, located miles away from Sunrise Beach, Missouri







STORIES FROM OUR PARTNERS